Regional Weather Roundup
Issued by NWS

Home | Current Version | Previous Version | Graphics & Text | Print | Product List | Glossary Off
Versions: 1 2 3 4 5 6 7 8 9 10 11 12 13 14 15 16 17 18 19 20 21 22 23 24 25 26 27 28 29 30 31 32 33 34 35 36 37 38 39 40 41 42 43 44 45 46 47 48 49 50

000
ASUS43 KMKX 222200
RWRWI

WISCONSIN REGIONAL WEATHER ROUNDUP
NATIONAL WEATHER SERVICE MILWAUKEE/SULLIVAN WI
500 PM CDT FRI AUG 22 2014

NOTE: "FAIR" INDICATES FEW OR NO CLOUDS BELOW 12,000 FEET WITH NO
SIGNIFICANT WEATHER AND/OR OBSTRUCTIONS TO VISIBILITY.

WIZ001-002-006>008-014>016-023>028-222300-
NORTHWEST WISCONSIN

CITY           SKY/WX    TMP DP  RH WIND       PRES   REMARKS
SUPERIOR ARPT  CLOUDY    64  61  91 NE6       30.01R
ASHLAND        CLOUDY    68  63  84 N7        30.00S
HAYWARD        CLOUDY    72  68  87 NE8       29.99R
SIREN          CLOUDY    73  67  82 CALM      29.98S
RICE LAKE      CLOUDY    75  69  81 N5        29.99R
LADYSMITH      SUNNY     78  71  78 N6        29.98S HX  81
EAU CLAIRE     NOT AVBL
MENOMONIE      PTCLDY    83  69  62 W7        29.94S HX  86
NEW RICHMOND   CLOUDY    74  70  85 NW5       29.98S
OSCEOLA        CLOUDY    74  71  90 NW5       30.00S
$$

WIZ003>005-009-010-017-018-222300-
NORTH CENTRAL WISCONSIN

CITY           SKY/WX    TMP DP  RH WIND       PRES   REMARKS
WOODRUFF       CLOUDY    77  72  83 CALM      29.99S
RHINELANDER    CLOUDY    72  69  90 S5        30.00S
EAGLE RIVER    LGT RAIN  72  71  96 CALM      29.99S
LAND O LAKES   CLOUDY    73  69  89 E6        30.01R
PHILLIPS       CLOUDY    74  70  87 CALM      29.98R
TOMAHAWK       CLOUDY    73  69  87 CALM      29.98F FOG
MEDFORD        SUNNY     79  73  81 CALM      29.95F HX  82
MERRILL        CLOUDY    73  72  96 CALM      29.96F FOG
$$

WIZ029-030-035-036-043>047-222300-
CENTRAL WISCONSIN

CITY           SKY/WX    TMP DP  RH WIND       PRES   REMARKS
WAUSAU         MOSUNNY   81  73  76 NW8       29.94S HX  86
MOSINEE        MOSUNNY   82  73  74 W6        29.96S HX  88
MARSHFIELD     MOSUNNY   83  73  72 SW3       29.95R HX  89
STEVENS POINT  SUNNY     83  72  67 W7        29.95R HX  89
WAUPACA        PTSUNNY   87  74  65 E8        29.93S HX  94
WAUTOMA        NOT AVBL
WISC RAPIDS    MOSUNNY   86  73  65 W9        29.95R HX  93
CAMP DOUGLAS   NOT AVBL
$$

WIZ011>013-019>022-031-037>040-048>050-222300-
NORTHEAST WISCONSIN

CITY           SKY/WX    TMP DP  RH WIND       PRES   REMARKS
ANTIGO         CLOUDY    72  70  95 E5        29.99R FOG
STURGEON BAY   MOSUNNY   73  70  88 E9        29.98S
GREEN BAY      MOSUNNY   83  74  74 VRB7      29.95R HX  89
MANITOWOC      NOT AVBL
APPLETON       NOT AVBL
CLINTONVILLE   PTSUNNY   81  72  74 E6        29.94S HX  84
OSHKOSH        SUNNY     84  74  71 E8        29.93S HX  91
$$

WIZ032>034-041-042-053>061-222300-
SOUTHWEST WISCONSIN

CITY           SKY/WX    TMP DP  RH WIND       PRES   REMARKS
LA CROSSE      MOSUNNY   85  74  69 SE3       29.91S HX  92
SPARTA         MOSUNNY   84  72  68 NW6       29.93S HX  89
VIROQUA        FAIR      85  75  71 NW6       29.95S HX  93
BOSCOBEL       SUNNY     92  72  51 CALM      29.90F HX  99
PRAIRIE DU CHI PTSUNNY   88  71  56 S3        29.90S HX  93
PLATTEVILLE    FAIR      87  77  72 W5        29.94S HX  98
$$

WIZ056-057-062-063-064-067-068-222300-
SOUTH CENTRAL WISCONSIN

CITY           SKY/WX    TMP DP  RH WIND       PRES   REMARKS
BARABOO/DELLS  SUNNY     87  69  54 CALM      29.93R HX  91
LONE ROCK      NOT AVBL
WATERTOWN      PTSUNNY   87  74  66 CALM      29.91S HX  95
MADISON        MOSUNNY   88  71  57 SW3       29.92S HX  94
MIDDLETON      FAIR      88  72  58 CALM      29.93S HX  94
MONROE         PTSUNNY   86  73  66 W6        29.94S HX  93
JANESVILLE     PTSUNNY   88  72  58 NW3       29.92R HX  94
$$

WIZ051-052-058>065-066-070>072-222300-
SOUTHEAST WISCONSIN

CITY           SKY/WX    TMP DP  RH WIND       PRES   REMARKS
MILWAUKEE      PTSUNNY   74  70  87 NE7       29.95R
WAUKESHA       NOT AVBL
MILWAUKEE/TIMM MOSUNNY   82  70  65 E8        29.95R HX  86
RACINE         SUNNY     80  72  76 E9        29.95R HX  84
BURLINGTON     MOSUNNY   85  73  66 CALM      29.92S HX  91
KENOSHA        PTSUNNY   81  73  76 E9        29.94R HX  86
FOND DU LAC    PTSUNNY   86  71  60 CALM      29.93S HX  91
SHEBOYGAN      SUNNY     77  70  79 E7        29.96R
WEST BEND      SUNNY     79  70  73 NE8       29.95S HX  81
JUNEAU         SUNNY     85  69  57 CALM      29.94S HX  89
$$

LSZ147-162-222300-
LAKE SUPERIOR

STATION/POSITION TIME  TEMP    WIND        PRES    WAVE
                       AIR SEA DIR/SP/G            HT/PER
                 (UTC) (F)     (DEG/KT/KT) (MB)    (FT/S)
W MID LAKE BUOY  2050   58 58   30/ 12/ 14 1015.5R   2/ 4
DEVILS ISLAND    2100   60      50/ 10/ 12 1015.8F
PORT WING        2140   60      30/  7/  9 1016.3S
SAXON HARBOR     2100   63     360/  5/  6 1015.9S
$$

LMZ867-665-643>646-222300-
LAKE MICHIGAN

STATION/POSITION TIME  TEMP    WIND        PRES    WAVE
                       AIR SEA DIR/SP/G            HT/PER
                 (UTC) (F)     (DEG/KT/KT) (MB)    (FT/S)
N MID LAKE BUOY  2050   68 68   50/  2/  4 1014.7F   0
NORTHPORT PIER   2100   67     100/  7/  8 1014.9S
SISTER BAY       2126   80     100/ 10/ 13   N/A
KEWAUNEE LAKESHO 2100   69     130/  1/  3 1013.9S
SHEBOYGAN LAKESH 2100   69 65  110/  4/  5 1014.6R
ATWATER BUOY     2100   71      50/ 10/ 10 1014.8F
MILWAUKEE LAKESH 2100   71      50/ 12/ 13   N/A
S MID LAKE BUOY  2050   72 72  110/  4/  4 1013.7F   0
KENOSHA   LAKESH 2100   79     100/  3/  4 1012.9F
$$

TC  - TEMPERATURE IN CELSIUS
VSB - VISIBILITY IN STATUTE MILES
WCI - WIND CHILL INDEX
HX  - HEAT INDEX




USA.gov is the U.S. government's official web portal to all federal, state and local government web resources and services.